Tracking 23752 objects as of 24-Oct-2021
HD Live streaming from Space Station
objects crossing your sky now

SL-14 DEB

Track SL-14 DEB now!
10-day predictions


NORAD ID: 45296
Int'l Code: 1991-056AJ
Perigee: 889.4 km
Apogee: 1,210.6 km
Inclination: 82.6 °
Period: 106.0 minutes
Semi major axis: 7420 km
RCS: Unknown
Launch date: August 15, 1991
Source: Commonwealth of Independent States (former USSR) (CIS)
Launch site: PLESETSK MISSILE AND SPACE COMPLEX (PKMTR)

Note: This is SATELLITE DEBRIS
aabbcc
Your satellite tracking list
Your tracking list is empty




NASA's NSSDC Master Catalog

Two Line Element Set (TLE):
1 45296U 91056AJ  21296.57714891  .00000865  00000-0  10138-2 0  9993
2 45296  82.6465 232.8301 0216433 247.0012 110.8175 13.58037929 82261
Source of the keplerian elements: AFSPC